Location: Carr Mill
(33.2054°N, 85.9439°W)
Time: 11:27:08
(UTC+00:00)

ISS - Visible Passes

Search period start: 18 June 2021 00:00
Search period end: 28 June 2021 00:00
Orbit: 417 x 422 km, 51.6° (Epoch: 18 June)

Date Brightness Start Highest point End Pass type
(mag) Time Alt. Az. Time Alt. Az. Time Alt. Az.
21 Jun -0.8 09:55:31 10° SE 09:56:12 10° SE 09:56:52 10° ESE visible
23 Jun -2.6 09:54:39 10° SSW 09:57:47 37° SE 10:00:55 10° ENE visible
24 Jun -1.7 09:08:50 15° SSE 09:10:27 20° SE 09:12:59 10° E visible
25 Jun -0.9 08:23:24 11° ESE 08:23:24 11° ESE 08:23:56 10° ESE visible
25 Jun -3.4 09:56:22 11° WSW 09:59:35 54° NW 10:02:53 10° NE visible
26 Jun -3.8 09:10:52 35° SW 09:12:07 77° SE 09:15:29 10° NE visible
27 Jun -2.5 08:25:18 34° ESE 08:25:18 34° ESE 08:27:52 10° ENE visible
27 Jun -1.7 09:59:10 10° W 10:01:37 19° NNW 10:04:05 10° NNE visible
